Fort Leonard Wood, MO

9:08 PM CST on November 20, 2017 (GMT -0600)
Waynesville Regional At Forney Field

Weather History for KTBN - October, 2013

Change the Weather History Date:

Monday, October 7, 2013

  Actual Average Record
Temperature  
Mean Temperature 56 °F -  
Max Temperature 68 °F 69 °F 87 °F (2007)
Min Temperature 45 °F 50 °F 32 °F (2000)
Degree Days  
Heating Degree Days 8    
Growing Degree Days 6 (Base 50)    
Moisture  
Dew Point 49 °F    
Average Humidity 81    
Maximum Humidity 100    
Minimum Humidity 46    
Precipitation  
Precipitation 0.00 in - - ()
Sea Level Pressure  
Sea Level Pressure 30.09 in    
Wind  
Wind Speed 4 mph (WNW)    
Max Wind Speed 8 mph    
Max Gust Speed -    
Visibility 4 miles    
Events      
Averages and records for this station are not official NWS values.
T = Trace of Precipitation, MM = Missing Value Source: NWS Daily Summary

Daily Weather History Graph

Daily Weather History Graph

Search for Another Location

Airport or City:

Trip Planner

Search our weather history database for the weather conditions in past years. The results will help you decide how hot, cold, wet, or windy it might be!

Date:

Astronomy

Oct. 07, 2013 Rise Set
Actual Time 7:09 AM CDT 6:42 PM CDT
Civil Twilight 6:43 AM CDT 7:08 PM CDT
Nautical Twilight 6:13 AM CDT 7:38 PM CDT
Astronomical Twilight 5:42 AM CDT 8:09 PM CDT
Moon 9:56 AM CDT (10/7) 8:31 PM CDT (10/7)
Length of Visible Light 12h 24m
Length of Day
11h 32m
Waxing Crescent, 9% of the Moon is Illuminated
Oct 7
Waxing Crescent
Oct 11
First Quarter
Oct 18
Full
Oct 26
Last Quarter
Nov 3
New

Hourly Weather History & Observations

Time (CDT) Temp. Windchill Dew Point Humidity Pressure Visibility Wind Dir Wind Speed Gust Speed Precip Events Conditions
12:48 AM 51.8 °F - 48.2 °F 88% 29.97 in 10.0 mi NW 3.5 mph - N/A   Overcast
12:58 AM 51.1 °F - 47.3 °F 87% 29.98 in 10.0 mi NW 8.1 mph - N/A   Mostly Cloudy
1:03 AM 50.0 °F - 46.4 °F 87% 29.97 in 10.0 mi WNW 8.1 mph - N/A   Scattered Clouds
1:13 AM 50.0 °F - 46.4 °F 87% 29.98 in 10.0 mi WNW 5.8 mph - N/A   Mostly Cloudy
1:43 AM 50.0 °F - 46.4 °F 87% 29.98 in 10.0 mi West 5.8 mph - N/A   Scattered Clouds
1:58 AM 48.6 °F - 45.1 °F 88% 29.99 in 10.0 mi WNW 5.8 mph - N/A   Partly Cloudy
2:58 AM 46.8 °F - 44.8 °F 93% 29.99 in 10.0 mi West 4.6 mph - N/A   Clear
3:53 AM 46.4 °F 45.2 °F 44.6 °F 93% 30.00 in 7.0 mi WNW 3.5 mph - N/A   Mostly Cloudy
3:58 AM 45.9 °F 43.6 °F 45.3 °F 98% 30.01 in 6.0 mi WNW 4.6 mph - N/A   Mostly Cloudy
4:58 AM 47.5 °F - 45.9 °F 94% 30.03 in 7.0 mi Variable 4.6 mph - N/A   Overcast
5:13 AM 48.2 °F - 46.4 °F 93% 30.02 in 7.0 mi Variable 4.6 mph - N/A   Overcast
5:58 AM 48.6 °F - 45.9 °F 90% 30.04 in 10.0 mi WNW 6.9 mph - N/A   Overcast
6:58 AM 48.9 °F - 45.9 °F 89% 30.06 in 10.0 mi NNW 5.8 mph - N/A   Overcast
7:58 AM 48.9 °F - 46.0 °F 90% 30.09 in 10.0 mi NW 6.9 mph - N/A   Overcast
3:58 PM 68.0 °F - 46.4 °F 46% 30.12 in 1.2 mi Variable 2.3 mph - N/A   Haze
4:03 PM 68.0 °F - 46.4 °F 46% 30.11 in 1.0 mi North 4.6 mph - N/A   Haze
4:08 PM 68.0 °F - 46.4 °F 46% 30.11 in 1.5 mi Variable 3.5 mph - N/A   Haze
4:23 PM 68.0 °F - 46.4 °F 46% 30.11 in 2.0 mi Variable 1.2 mph - N/A   Haze
4:28 PM 68.0 °F - 46.4 °F 46% 30.10 in 1.8 mi Variable 1.2 mph - N/A   Haze
4:43 PM 68.0 °F - 46.4 °F 46% 30.11 in 1.0 mi Variable 3.5 mph - N/A   Haze
4:48 PM 68.0 °F - 46.4 °F 46% 30.10 in 0.8 mi NW 4.6 mph - N/A   Haze
4:58 PM 66.2 °F - 48.2 °F 52% 30.11 in 0.5 mi NW 3.5 mph - N/A   Haze
5:23 PM 66.2 °F - 48.2 °F 52% 30.10 in 1.0 mi NNW 2.3 mph - N/A   Haze
5:33 PM 66.2 °F - 48.2 °F 52% 30.10 in 0.8 mi NNW 1.2 mph - N/A   Haze
5:43 PM 66.2 °F - 46.4 °F 49% 30.11 in 1.0 mi NW 2.3 mph - N/A   Haze
5:58 PM 66.4 °F - 46.4 °F 49% 30.12 in 0.8 mi NW 3.5 mph - N/A   Haze
6:23 PM 62.6 °F - 51.8 °F 68% 30.11 in 1.0 mi NW 2.3 mph - N/A   Haze
6:28 PM 62.6 °F - 51.8 °F 68% 30.11 in 1.0 mi NW 1.2 mph - N/A   Haze
6:38 PM 60.8 °F - 55.4 °F 82% 30.11 in 1.2 mi Calm Calm - N/A   Haze
6:58 PM 57.2 °F - 54.9 °F 92% 30.13 in 1.2 mi Calm Calm - N/A   Clear
7:13 PM 55.4 °F - 53.6 °F 94% 30.12 in 2.5 mi South 1.2 mph - N/A   Clear
7:28 PM 55.4 °F - 53.6 °F 94% 30.12 in 1.8 mi South 2.3 mph - N/A   Clear
7:33 PM 53.6 °F - 53.6 °F 100% 30.12 in 2.0 mi South 1.2 mph - N/A   Clear
7:58 PM 53.6 °F - 51.6 °F 93% 30.14 in 2.0 mi Calm Calm - N/A   Clear
8:13 PM 53.6 °F - 51.8 °F 94% 30.13 in 1.8 mi Calm Calm - N/A   Clear
8:23 PM 55.4 °F - 51.8 °F 88% 30.13 in 2.0 mi Calm Calm - N/A   Clear
8:28 PM 55.4 °F - 51.8 °F 88% 30.14 in 1.8 mi WNW 1.2 mph - N/A   Clear
8:33 PM 53.6 °F - 51.8 °F 94% 30.14 in 2.0 mi Calm Calm - N/A   Clear
8:58 PM 52.9 °F - 51.1 °F 94% 30.14 in 2.0 mi Calm Calm - N/A   Clear
9:03 PM 51.8 °F - 50.0 °F 94% 30.14 in 1.8 mi Calm Calm - N/A   Clear
9:13 PM 51.8 °F - 51.8 °F 100% 30.14 in 2.0 mi Calm Calm - N/A   Clear
9:58 PM 50.0 °F - 50.0 °F 100% 30.15 in 3.0 mi Calm Calm - N/A   Clear
10:18 PM 50.0 °F - 50.0 °F 100% 30.16 in 2.5 mi Calm Calm - N/A   Clear
10:33 PM 50.0 °F - 50.0 °F 100% 30.16 in 3.0 mi SSE 2.3 mph - N/A   Clear
10:38 PM 50.0 °F - 50.0 °F 100% 30.16 in 2.0 mi South 1.2 mph - N/A   Clear
10:43 PM 50.0 °F - 50.0 °F 100% 30.16 in 1.8 mi SSE 1.2 mph - N/A   Clear
10:48 PM 50.0 °F - 50.0 °F 100% 30.16 in 2.0 mi Calm Calm - N/A   Clear
10:58 PM 48.2 °F - 48.2 °F 100% 30.16 in 1.5 mi Calm Calm - N/A   Clear
11:58 PM 47.5 °F - 47.5 °F 100% 30.16 in 1.8 mi Calm Calm - N/A   Clear